Regional Weather Roundup
Issued by NWS

Home | Current Version | Previous Version | Graphics & Text | Print | Product List | Glossary On
Versions: 1 2 3 4 5 6 7 8 9 10 11 12 13 14 15 16 17 18 19 20 21 22 23 24 25 26 27 28 29 30 31 32 33 34 35 36 37 38 39 40 41 42 43 44 45 46 47 48 49 50
000
ASUS43 KFSD 161402
RWRSD

WEATHER ROUNDUP FOR SOUTH DAKOTA
NATIONAL WEATHER SERVICE SIOUX FALLS SD
900 AM CDT MON OCT 16 2017

NOTE: "FAIR" INDICATES FEW OR NO CLOUDS BELOW 12,000 FEET WITH NO
SIGNIFICANT WEATHER AND/OR OBSTRUCTIONS TO VISIBILITY.


SDZ001>005-009-010-012>017-161500-
NORTHWEST AND NORTH CENTRAL SOUTH DAKOTA

CITY           SKY/WX    TMP DP  RH WIND       PRES   REMARKS
BUFFALO          N/A     46  28  49 W9        30.00F
FAITH            N/A     40  31  70 S9        30.07F
MOBRIDGE       CLEAR     44  36  73 S9        30.05F
$$

SDZ012>016-024>037-041>051-057-063-072>074-161500-
SOUTHWEST AND SOUTH CENTRAL SOUTH DAKOTA

CITY           SKY/WX    TMP DP  RH WIND       PRES   REMARKS
RAPID CTY ARPT CLOUDY    39  29  67 CALM      30.11F
PIERRE         CLEAR     38  34  85 SE6       30.10F
CUSTER         CLOUDY    43  22  43 W6        30.19F
ELLSWORTH AFB  CLOUDY    41  28  60 W8        30.10F
PHILIP         CLOUDY    32  31  96 W3        30.12S
PINE RIDGE     CLEAR     35  28  75 CALM      30.17F
SPEARFISH      FAIR      46  25  42 CALM      30.13S
WINNER         FAIR      48  31  51 SW16G25   30.13F
$$

SDZ004>011-016>023-039-040-161500-
NORTHEAST SOUTH DAKOTA

CITY           SKY/WX    TMP DP  RH WIND       PRES   REMARKS
ABERDEEN       SUNNY     34  31  88 S8        30.12F WCI  27
WATERTOWN      SUNNY     37  34  89 S10       30.15F
BROOKINGS      SUNNY     40  35  83 S8        30.20F
SISSETON         N/A     46  35  65 S3        30.11F
$$

SDZ017-020-022-023-036>040-048>070-161500-
SOUTHEAST SOUTH DAKOTA

CITY           SKY/WX    TMP DP  RH WIND       PRES   REMARKS
SIOUX FALLS    SUNNY     44  37  76 S9        30.23F
HURON          SUNNY     38  33  82 S12       30.16F
MITCHELL       SUNNY     41  35  79 SE6       30.19F
YANKTON        SUNNY     40  37  89 CALM      30.25S
$$

ABBREVIATIONS USED IN REMARKS
   TC - TEMPERATURE IN CELSIUS
  WCI - WIND CHILL INDEX
   HX - HEAT INDEX
  VSB - VISIBILITY





USA.gov is the U.S. government's official web portal to all federal, state and local government web resources and services.